Volver al catálogo

CZ-3A DEB

ActivoGTO
NORAD 48531·DEBRIS·🇨🇳 China

Lanzado Feb 2, 2007 desde Xichang Satellite Launch Center

Loading…

TLE

ObsoletoSource: Space-Track

Época: Sep 7, 2026, 06:45 UTC

1 48531U 07003AT  26250.28132841  .00001498  00000-0  17087-2 0  9992
2 48531  23.2348 330.4311 7108491 102.6844 338.7121  2.44429949 86191

Sigue CZ-3A DEB en tiempo real con AllMySat

Download on the App Store